Starlink 31446

operational
NORAD ID: 59315 Int'l Des: 2024-056 Owner: SPXS Country: US Constellation: starlink
LEOCIRCULAR

关于 Starlink 31446

正在加载描述...

实时位置

正在加载3D地球...

即将过境

高度历史

Altitude vs Time

uPlot chart will show altitude changes over time

两行轨道根数

1 59315U 24056V 25259.01691422 .00003012 00000-0 11887-3 0 9992
2 59315 43.0024 136.8860 0001185 271.6686 88.4030 15.27600770 84449
Epoch: Sep 16, 2025 • Age: 19 hours

当前状态

高度 486.9 km
速度 7.63 km/s
星下点 42.80°N, 59.47°W
发射日期 Mar 24, 2024
运行时间 1.4 years
类型 internet

技术详情

分类 Payload
质量 730.00 kg
干质量 700.00 kg
总质量 730.00 kg
长度 0.30 m
直径 4.10 m
跨度 29.00 m
形状 Box + pan
制造商 SPXS
平台类型 Starlink V2M
阶段状态 In Orbit
所有者/国家 SPXS/US

大型星座

Loading constellations...